Location: City of Moscow
(46.7306°N, 116.9989°W)
Time: 00:54:45
(UTC+00:00)

CUBEBUG 2 - Pass Details

Date: 19 April 2026
Orbit: 546 x 628 km, 97.9° (Epoch: 19 May)

Event Time Altitude Azimuth Distance (km) Brightness Sun altitude
Rises 11:04:21 0° 4° (N) 2,870 ? -17.2°
Reaches altitude 10° 11:06:44 10° 354° (N) 1,948 ? -16.9°
Maximum altitude 11:10:26 30° 293° (WNW) 1,068 ? -16.4°
Enters shadow 11:11:30 26° 265° (W) 1,162 ? -16.3°
